Wetterdaten: Woche 09.03.09 - 15.03.09 (KW11)
Datum Zeit Temperatur Luftfeuchte Luftdruck Niederschlag Windrichtung Wind
09.03.2009 00:00 4,0 C 93 % 1007,5 hPa 1,0 l/m W-SW 26,1 km/h (4 Bft)
09.03.2009 01:00 3,4 C 92 % 1008,2 hPa 1,2 l/m W-NW 22,3 km/h (4 Bft)
09.03.2009 02:00 2,5 C 93 % 1008,1 hPa 0,0 l/m W-SW 11,7 km/h (2 Bft)
09.03.2009 03:00 2,2 C 96 % 1007,6 hPa 0,0 l/m SW 8,4 km/h (2 Bft)
09.03.2009 04:00 1,9 C 95 % 1008,3 hPa 1,2 l/m W-SW 23,9 km/h (4 Bft)
09.03.2009 05:00 1,1 C 94 % 1009,9 hPa 2,2 l/m W 21,4 km/h (4 Bft)
09.03.2009 06:00 1,0 C 93 % 1011,4 hPa 0,4 l/m SW 17,0 km/h (3 Bft)
09.03.2009 07:00 1,0 C 93 % 1011,8 hPa 0,0 l/m W-SW 27,1 km/h (4 Bft)
09.03.2009 08:00 1,3 C 91 % 1012,5 hPa 0,0 l/m W-SW 26,1 km/h (4 Bft)
09.03.2009 09:00 2,0 C 90 % 1013,2 hPa 0,0 l/m W-SW 25,6 km/h (4 Bft)
09.03.2009 10:00 3,0 C 85 % 1013,6 hPa 0,0 l/m W 26,8 km/h (4 Bft)
09.03.2009 11:00 4,0 C 80 % 1013,9 hPa 0,0 l/m W 24,9 km/h (4 Bft)
09.03.2009 12:00 4,4 C 75 % 1014,0 hPa 0,0 l/m SW 28,6 km/h (4 Bft)
09.03.2009 13:00 3,6 C 79 % 1014,0 hPa 0,0 l/m SW 24,1 km/h (4 Bft)
09.03.2009 14:00 4,2 C 79 % 1014,1 hPa 0,0 l/m W-NW 19,2 km/h (3 Bft)
09.03.2009 15:00 4,4 C 76 % 1014,5 hPa 0,0 l/m W 21,4 km/h (4 Bft)
09.03.2009 16:00 4,9 C 68 % 1014,9 hPa 0,0 l/m W-NW 18,8 km/h (3 Bft)
09.03.2009 17:00 4,1 C 72 % 1015,4 hPa 0,0 l/m W-SW 16,4 km/h (3 Bft)
09.03.2009 18:00 3,1 C 79 % 1016,2 hPa 0,0 l/m W-SW 16,9 km/h (3 Bft)
09.03.2009 19:00 1,9 C 86 % 1017,0 hPa 0,0 l/m W-SW 17,4 km/h (3 Bft)
09.03.2009 20:00 1,4 C 87 % 1017,2 hPa 0,0 l/m W 22,4 km/h (4 Bft)
09.03.2009 21:00 1,4 C 87 % 1017,6 hPa 0,0 l/m SW 22,1 km/h (4 Bft)
09.03.2009 22:00 1,4 C 89 % 1018,1 hPa 0,0 l/m SW 18,2 km/h (3 Bft)
09.03.2009 23:00 1,3 C 90 % 1018,3 hPa 0,0 l/m W-SW 20,1 km/h (4 Bft)
10.03.2009 00:00 1,3 C 90 % 1018,7 hPa 0,0 l/m W-SW 22,1 km/h (4 Bft)
10.03.2009 01:00 1,3 C 89 % 1018,7 hPa 0,0 l/m SW 22,5 km/h (4 Bft)
10.03.2009 02:00 1,5 C 89 % 1018,6 hPa 0,0 l/m W-SW 20,9 km/h (4 Bft)
10.03.2009 03:00 1,4 C 89 % 1018,5 hPa 0,0 l/m W 19,6 km/h (3 Bft)
10.03.2009 04:00 1,3 C 90 % 1018,4 hPa 0,0 l/m W-SW 17,4 km/h (3 Bft)
10.03.2009 05:00 1,5 C 90 % 1018,5 hPa 0,0 l/m W-SW 17,2 km/h (3 Bft)
10.03.2009 06:00 1,7 C 90 % 1018,3 hPa 0,0 l/m SW 21,4 km/h (4 Bft)
10.03.2009 07:00 1,4 C 93 % 1018,2 hPa 0,0 l/m SW 15,8 km/h (3 Bft)
10.03.2009 08:00 2,0 C 92 % 1017,9 hPa 0,0 l/m W-SW 25,2 km/h (4 Bft)
10.03.2009 09:00 2,9 C 88 % 1017,5 hPa 0,0 l/m W-SW 27,8 km/h (4 Bft)
10.03.2009 10:00 4,2 C 82 % 1016,8 hPa 0,0 l/m W-SW 26,7 km/h (4 Bft)
10.03.2009 11:00 5,2 C 74 % 1015,9 hPa 0,0 l/m W-SW 28,9 km/h (5 Bft)
10.03.2009 12:00 4,4 C 80 % 1015,3 hPa 0,0 l/m W-SW 30,2 km/h (5 Bft)
10.03.2009 13:00 3,3 C 90 % 1014,1 hPa 0,6 l/m W-SW 24,5 km/h (4 Bft)
10.03.2009 14:00 2,8 C 93 % 1013,2 hPa 0,6 l/m SW 22,3 km/h (4 Bft)
10.03.2009 15:00 2,8 C 92 % 1012,7 hPa 0,2 l/m W-SW 29,1 km/h (5 Bft)
10.03.2009 16:00 2,5 C 93 % 1012,0 hPa 0,6 l/m W-SW 28,3 km/h (4 Bft)
10.03.2009 17:00 2,2 C 94 % 1011,3 hPa 0,4 l/m SW 26,4 km/h (4 Bft)
10.03.2009 18:00 2,1 C 93 % 1011,2 hPa 0,6 l/m W-SW 37,2 km/h (5 Bft)
10.03.2009 19:00 2,1 C 93 % 1011,4 hPa 0,2 l/m SW 33,9 km/h (5 Bft)
10.03.2009 20:00 2,2 C 93 % 1011,3 hPa 0,0 l/m W-SW 36,6 km/h (5 Bft)
10.03.2009 21:00 2,4 C 93 % 1011,5 hPa 0,0 l/m W-SW 29,5 km/h (5 Bft)
10.03.2009 22:00 2,4 C 93 % 1011,3 hPa 0,0 l/m W-SW 29,8 km/h (5 Bft)
10.03.2009 23:00 2,6 C 93 % 1011,1 hPa 0,0 l/m W-SW 31,4 km/h (5 Bft)
11.03.2009 00:00 2,7 C 93 % 1011,3 hPa 0,2 l/m SW 27,5 km/h (4 Bft)
11.03.2009 01:00 2,8 C 93 % 1012,0 hPa 0,2 l/m W 26,3 km/h (4 Bft)
11.03.2009 02:00 2,8 C 95 % 1012,7 hPa 2,8 l/m W-NW 21,4 km/h (4 Bft)
11.03.2009 03:00 2,7 C 95 % 1013,3 hPa 0,2 l/m W-NW 16,9 km/h (3 Bft)
11.03.2009 04:00 2,8 C 95 % 1014,2 hPa 0,0 l/m W-NW 12,0 km/h (2 Bft)
11.03.2009 05:00 2,4 C 92 % 1015,2 hPa 0,0 l/m NW 15,1 km/h (3 Bft)
11.03.2009 06:00 2,1 C 88 % 1016,6 hPa 0,0 l/m NW 21,2 km/h (4 Bft)
11.03.2009 07:00 1,8 C 82 % 1017,7 hPa 0,0 l/m W-NW 15,7 km/h (3 Bft)
11.03.2009 08:00 2,1 C 83 % 1018,8 hPa 0,0 l/m W-NW 7,5 km/h (2 Bft)
11.03.2009 09:00 2,7 C 80 % 1019,8 hPa 0,0 l/m W-NW 11,1 km/h (2 Bft)
11.03.2009 10:00 2,9 C 82 % 1020,8 hPa 0,0 l/m W-NW 12,0 km/h (2 Bft)
11.03.2009 11:00 2,8 C 83 % 1021,7 hPa 0,0 l/m NW 11,0 km/h (2 Bft)
11.03.2009 12:00 3,3 C 79 % 1022,2 hPa 0,2 l/m W-NW 15,0 km/h (3 Bft)
11.03.2009 13:00 4,3 C 75 % 1022,3 hPa 0,0 l/m W 22,0 km/h (4 Bft)
11.03.2009 14:00 2,9 C 89 % 1022,7 hPa 0,2 l/m W-SW 17,8 km/h (3 Bft)
11.03.2009 15:00 4,1 C 84 % 1022,5 hPa 0,0 l/m W 18,4 km/h (3 Bft)
11.03.2009 16:00 4,0 C 79 % 1022,9 hPa 0,0 l/m W-NW 14,8 km/h (3 Bft)
11.03.2009 17:00 2,2 C 89 % 1023,7 hPa 0,0 l/m W-NW 11,5 km/h (2 Bft)
11.03.2009 18:00 1,1 C 94 % 1024,3 hPa 0,2 l/m W-SW 2,1 km/h (1 Bft)
11.03.2009 19:00 0,9 C 96 % 1025,1 hPa 0,0 l/m N 1,3 km/h (1 Bft)
11.03.2009 20:00 1,0 C 96 % 1025,6 hPa 0,0 l/m W-SW 2,4 km/h (1 Bft)
11.03.2009 21:00 1,1 C 95 % 1026,0 hPa 0,0 l/m NW 3,9 km/h (1 Bft)
11.03.2009 22:00 1,0 C 95 % 1026,5 hPa 0,0 l/m SW 5,1 km/h (1 Bft)
11.03.2009 23:00 0,8 C 95 % 1026,4 hPa 0,0 l/m SW 4,1 km/h (1 Bft)
12.03.2009 00:00 0,4 C 95 % 1026,5 hPa 0,0 l/m SW 3,3 km/h (1 Bft)
12.03.2009 01:00 0,3 C 96 % 1026,7 hPa 0,0 l/m SW 3,5 km/h (1 Bft)
12.03.2009 02:00 0,2 C 96 % 1026,5 hPa 0,0 l/m SW 4,1 km/h (1 Bft)
12.03.2009 03:00 -0,0 C 96 % 1026,0 hPa 0,0 l/m S-SW 5,1 km/h (1 Bft)
12.03.2009 04:00 0,1 C 97 % 1026,0 hPa 0,0 l/m S 3,7 km/h (1 Bft)
12.03.2009 05:00 0,1 C 97 % 1026,0 hPa 0,0 l/m S 2,8 km/h (1 Bft)
12.03.2009 06:00 -0,1 C 96 % 1026,1 hPa 0,0 l/m N 0,8 km/h (0 Bft)
12.03.2009 07:00 -0,1 C 97 % 1026,4 hPa 0,0 l/m SW 3,3 km/h (1 Bft)
12.03.2009 08:00 0,5 C 96 % 1026,7 hPa 0,0 l/m S-SW 8,6 km/h (2 Bft)
12.03.2009 09:00 1,4 C 94 % 1027,0 hPa 0,4 l/m W-SW 11,7 km/h (2 Bft)
12.03.2009 10:00 2,2 C 92 % 1027,0 hPa 1,4 l/m SW 15,7 km/h (3 Bft)
12.03.2009 11:00 3,5 C 86 % 1027,0 hPa 0,2 l/m SW 14,1 km/h (3 Bft)
12.03.2009 12:00 4,3 C 79 % 1026,5 hPa 0,2 l/m S-SW 16,6 km/h (3 Bft)
12.03.2009 13:00 4,6 C 75 % 1025,3 hPa 0,0 l/m SW 20,6 km/h (4 Bft)
12.03.2009 14:00 4,8 C 73 % 1024,5 hPa 0,0 l/m SW 20,8 km/h (4 Bft)
12.03.2009 15:00 4,6 C 74 % 1024,3 hPa 0,0 l/m W-SW 18,8 km/h (3 Bft)
12.03.2009 16:00 4,4 C 70 % 1023,4 hPa 0,0 l/m SW 24,9 km/h (4 Bft)
12.03.2009 17:00 4,2 C 72 % 1022,9 hPa 0,0 l/m W-SW 20,9 km/h (4 Bft)
12.03.2009 18:00 3,8 C 78 % 1023,3 hPa 0,0 l/m SW 17,0 km/h (3 Bft)
12.03.2009 19:00 3,3 C 80 % 1023,0 hPa 0,0 l/m SW 16,5 km/h (3 Bft)
12.03.2009 20:00 3,7 C 75 % 1023,0 hPa 0,0 l/m W-SW 20,2 km/h (4 Bft)
12.03.2009 21:00 4,0 C 77 % 1022,9 hPa 0,2 l/m SW 14,8 km/h (3 Bft)
12.03.2009 22:00 3,5 C 82 % 1022,7 hPa 0,0 l/m SW 11,4 km/h (2 Bft)
12.03.2009 23:00 4,3 C 76 % 1022,1 hPa 0,0 l/m SW 21,6 km/h (4 Bft)
13.03.2009 00:00 3,9 C 82 % 1021,9 hPa 0,0 l/m SW 15,4 km/h (3 Bft)
13.03.2009 01:00 4,3 C 81 % 1021,6 hPa 0,0 l/m SW 17,2 km/h (3 Bft)
13.03.2009 02:00 4,3 C 87 % 1021,5 hPa 1,2 l/m SW 6,7 km/h (2 Bft)
13.03.2009 03:00 3,8 C 92 % 1021,4 hPa 0,8 l/m SW 5,7 km/h (1 Bft)
13.03.2009 04:00 3,9 C 94 % 1021,1 hPa 0,0 l/m W-SW 11,6 km/h (2 Bft)
13.03.2009 05:00 4,4 C 91 % 1021,1 hPa 0,0 l/m SW 11,0 km/h (2 Bft)
13.03.2009 06:00 4,4 C 91 % 1021,7 hPa 0,2 l/m S-SW 7,8 km/h (2 Bft)
13.03.2009 07:00 4,0 C 94 % 1022,1 hPa 0,0 l/m S-SW 6,4 km/h (2 Bft)
13.03.2009 08:00 4,6 C 93 % 1022,5 hPa 0,0 l/m SW 7,9 km/h (2 Bft)
13.03.2009 09:00 5,9 C 89 % 1022,8 hPa 0,0 l/m SW 10,9 km/h (2 Bft)
13.03.2009 10:00 7,4 C 81 % 1022,8 hPa 0,0 l/m W 12,5 km/h (3 Bft)
13.03.2009 11:00 8,3 C 77 % 1022,6 hPa 0,0 l/m W-SW 11,7 km/h (2 Bft)
13.03.2009 12:00 9,4 C 72 % 1022,2 hPa 0,0 l/m W-NW 13,3 km/h (3 Bft)
13.03.2009 13:00 10,0 C 67 % 1021,7 hPa 0,0 l/m N 10,9 km/h (2 Bft)
13.03.2009 14:00 9,9 C 67 % 1021,4 hPa 0,0 l/m N-NW 14,1 km/h (3 Bft)
13.03.2009 15:00 9,9 C 66 % 1021,5 hPa 0,0 l/m N-NW 12,1 km/h (2 Bft)
13.03.2009 16:00 9,8 C 65 % 1021,4 hPa 0,0 l/m N 8,3 km/h (2 Bft)
13.03.2009 17:00 9,5 C 68 % 1021,4 hPa 0,0 l/m N-NO 6,3 km/h (2 Bft)
13.03.2009 18:00 8,7 C 73 % 1021,4 hPa 0,0 l/m NO 1,7 km/h (1 Bft)
13.03.2009 19:00 7,6 C 79 % 1021,2 hPa 0,0 l/m N 0,4 km/h (0 Bft)
13.03.2009 20:00 6,3 C 83 % 1021,1 hPa 0,0 l/m N 0,1 km/h (0 Bft)
13.03.2009 21:00 5,1 C 87 % 1021,0 hPa 0,0 l/m N 0,5 km/h (0 Bft)
13.03.2009 22:00 4,4 C 88 % 1020,9 hPa 0,0 l/m N 0,3 km/h (0 Bft)
13.03.2009 23:00 3,4 C 90 % 1020,7 hPa 0,0 l/m N 0,5 km/h (0 Bft)
14.03.2009 00:00 2,3 C 91 % 1020,3 hPa 0,0 l/m N 0,0 km/h (0 Bft)
14.03.2009 01:00 1,4 C 93 % 1020,3 hPa 0,0 l/m N 0,1 km/h (0 Bft)
14.03.2009 02:00 0,8 C 93 % 1020,0 hPa 0,0 l/m N 0,0 km/h (0 Bft)
14.03.2009 03:00 0,3 C 94 % 1019,4 hPa 0,0 l/m N 0,0 km/h (0 Bft)
14.03.2009 04:00 0,2 C 95 % 1019,1 hPa 0,0 l/m N 0,0 km/h (0 Bft)
14.03.2009 05:00 0,2 C 96 % 1019,0 hPa 0,0 l/m N 0,5 km/h (0 Bft)
14.03.2009 06:00 0,3 C 96 % 1018,9 hPa 0,0 l/m N 0,4 km/h (0 Bft)
14.03.2009 07:00 0,1 C 96 % 1019,0 hPa 0,0 l/m N 0,5 km/h (0 Bft)
14.03.2009 08:00 0,6 C 97 % 1019,3 hPa 0,0 l/m NO 1,2 km/h (1 Bft)
14.03.2009 09:00 2,9 C 98 % 1019,4 hPa 0,0 l/m S 6,4 km/h (2 Bft)
14.03.2009 10:00 6,1 C 88 % 1019,2 hPa 0,0 l/m S 9,5 km/h (2 Bft)
14.03.2009 11:00 8,9 C 77 % 1018,9 hPa 0,0 l/m SW 15,3 km/h (3 Bft)
14.03.2009 12:00 10,5 C 70 % 1018,2 hPa 0,0 l/m W-SW 17,6 km/h (3 Bft)
14.03.2009 13:00 10,9 C 66 % 1017,7 hPa 0,0 l/m SW 18,4 km/h (3 Bft)
14.03.2009 14:00 11,0 C 64 % 1017,6 hPa 0,0 l/m SW 17,6 km/h (3 Bft)
14.03.2009 15:00 11,1 C 65 % 1017,6 hPa 0,0 l/m W-SW 16,2 km/h (3 Bft)
14.03.2009 16:00 11,0 C 65 % 1017,7 hPa 0,0 l/m W-SW 13,8 km/h (3 Bft)
14.03.2009 17:00 10,6 C 68 % 1018,0 hPa 0,0 l/m SW 11,4 km/h (2 Bft)
14.03.2009 18:00 10,0 C 71 % 1018,6 hPa 0,0 l/m SW 9,4 km/h (2 Bft)
14.03.2009 19:00 9,4 C 73 % 1018,9 hPa 0,0 l/m SW 8,8 km/h (2 Bft)
14.03.2009 20:00 9,0 C 72 % 1019,2 hPa 0,0 l/m W-SW 13,4 km/h (3 Bft)
14.03.2009 21:00 8,6 C 73 % 1019,4 hPa 0,0 l/m SW 11,7 km/h (2 Bft)
14.03.2009 22:00 8,4 C 73 % 1019,8 hPa 0,0 l/m W-SW 11,0 km/h (2 Bft)
14.03.2009 23:00 8,5 C 74 % 1020,0 hPa 0,0 l/m SW 11,9 km/h (2 Bft)
15.03.2009 00:00 8,1 C 74 % 1020,2 hPa 0,0 l/m W-SW 8,7 km/h (2 Bft)
15.03.2009 01:00 7,9 C 77 % 1020,7 hPa 0,0 l/m W-NW 5,9 km/h (2 Bft)
15.03.2009 02:00 7,7 C 81 % 1020,9 hPa 0,0 l/m W-NW 11,9 km/h (2 Bft)
15.03.2009 03:00 7,5 C 84 % 1020,9 hPa 0,0 l/m W 17,4 km/h (3 Bft)
15.03.2009 04:00 7,4 C 81 % 1021,8 hPa 0,0 l/m W-NW 15,6 km/h (3 Bft)
15.03.2009 05:00 7,0 C 80 % 1022,4 hPa 0,0 l/m W-NW 11,4 km/h (2 Bft)
15.03.2009 06:00 6,5 C 78 % 1022,9 hPa 0,0 l/m W-NW 12,8 km/h (3 Bft)
15.03.2009 07:00 6,1 C 80 % 1023,8 hPa 0,0 l/m W-NW 8,6 km/h (2 Bft)
15.03.2009 08:00 6,2 C 81 % 1024,6 hPa 0,0 l/m W-NW 9,1 km/h (2 Bft)
15.03.2009 09:00 7,1 C 77 % 1025,2 hPa 0,0 l/m W-NW 17,2 km/h (3 Bft)
15.03.2009 10:00 7,8 C 73 % 1025,4 hPa 0,0 l/m W 22,5 km/h (4 Bft)
15.03.2009 11:00 7,7 C 72 % 1025,8 hPa 0,0 l/m W-NW 18,5 km/h (3 Bft)
15.03.2009 12:00 7,5 C 71 % 1025,9 hPa 0,0 l/m NW 16,5 km/h (3 Bft)
15.03.2009 13:00 7,6 C 69 % 1025,9 hPa 0,0 l/m W-NW 13,4 km/h (3 Bft)
15.03.2009 14:00 7,0 C 68 % 1026,1 hPa 0,0 l/m W-NW 13,7 km/h (3 Bft)
15.03.2009 15:00 7,0 C 68 % 1026,3 hPa 0,0 l/m W 9,5 km/h (2 Bft)
15.03.2009 16:00 7,1 C 68 % 1026,4 hPa 0,0 l/m W 4,5 km/h (1 Bft)
15.03.2009 17:00 6,6 C 76 % 1027,2 hPa 0,4 l/m N-NO 7,5 km/h (2 Bft)
15.03.2009 18:00 5,2 C 88 % 1028,0 hPa 0,2 l/m NO 3,2 km/h (1 Bft)
15.03.2009 19:00 4,4 C 90 % 1028,7 hPa 0,0 l/m N 0,9 km/h (0 Bft)
15.03.2009 20:00 4,1 C 93 % 1029,1 hPa 0,0 l/m N 0,7 km/h (0 Bft)
15.03.2009 21:00 3,9 C 94 % 1029,4 hPa 0,0 l/m S-SO 3,1 km/h (1 Bft)
15.03.2009 22:00 3,6 C 94 % 1029,9 hPa 0,0 l/m N 0,1 km/h (0 Bft)
15.03.2009 23:00 3,5 C 95 % 1030,2 hPa 0,0 l/m N 0,1 km/h (0 Bft)
Min-Datum _ 12.03.09 14.03.09 09.03.09 - - 11.03.09
_ Min-Zeit 06:50 14:10 00:20 - - 18:20
Minimum _ -0,2 C 62 % 1007,3 hPa - - 0,0 km/h (0 Bft)
Max-Datum _ 14.03.09 14.03.09 15.03.09 11.03.09 - 09.03.09
_ Max-Zeit 16:15 09:10 23:00 02:40 - 04:30
Maximum _ 11,3 C 99 % 1030,3 hPa 2,8 l/m - 49,9 km/h
W-NW (6 Bft)
Durchschnitt _ 4,1 C 85 % 1019,9 hPa #18,4 l/m W-SW 14,1 km/h (3 Bft)